Starlink 30913

operational
NORAD ID: 58388 Int'l Des: 2023-178 Owner: SPXS Country: US Constellation: starlink
LEOCIRCULAR

关于 Starlink 30913

正在加载描述...

实时位置

正在加载3D地球...

即将过境

高度历史

Altitude vs Time

uPlot chart will show altitude changes over time

两行轨道根数

1 58388U 23178Q 25303.55249099 .00001864 00000-0 75071-4 0 9992
2 58388 53.1615 245.7729 0001147 102.7118 257.4011 15.30187327109966
Epoch: Oct 30, 2025 • Age: 20 hours

当前状态

高度 485.8 km
速度 7.62 km/s
星下点 -32.00°S, 32.3°E
发射日期 Nov 20, 2023
运行时间 1.9 years
类型 internet

技术详情

分类 Payload
质量 730.00 kg
干质量 700.00 kg
总质量 730.00 kg
长度 0.30 m
直径 4.10 m
跨度 29.00 m
形状 Box + pan
制造商 SPXS
平台类型 Starlink V2M
阶段状态 In Orbit
所有者/国家 SPXS/US

大型星座

Loading constellations...